This demonstration page uses our WeatherBlox Daily Observations layout. Learn more.

Hourly Observations for August 12, 2017

Temp ( °F °C ) Dew Point ( °F °C ) Humidity (%) Winds ( mph kmh ) Pressure ( in mb ) Visibility ( mi km ) Precip ( " mm )
12:54 am 00:54 Clear 60 15.6 57 13.9 90 90 Calm 30.09 1019 10 16.0934 0 0
1:54 am 01:54 Clear 62 16.7 59 15 90 90 NNW 5 7 30.09 1019 10 16.0934 0 0
2:54 am 02:54 Clear 59 15 56 13.3 90 90 NNW 5 7 30.09 1019 10 16.0934 0 0
3:54 am 03:54 Clear 60 15.6 57 13.9 90 90 NNW 5 7 30.09 1019 10 16.0934 0 0
4:54 am 04:54 Clear 58 14.4 55 12.8 90 90 NNW 3 6 30.09 1019 10 16.0934 0 0
5:54 am 05:54 Clear 56 13.3 54 12.2 93 93 N 7 11 30.1 1019 10 16.0934 0 0
6:54 am 06:54 Sunny 57 13.9 54 12.2 90 90 Calm 30.12 1020 10 16.0934 0 0
7:54 am 07:54 Sunny 62 16.7 57 13.9 84 84 Calm 30.12 1020 10 16.0934 0 0
8:54 am 08:54 Sunny 67 19.4 59 15 76 76 S 3 6 30.12 1020 10 16.0934 0 0
9:54 am 09:54 Sunny 72 22.2 58 14.4 61 61 S 8 13 30.12 1020 10 16.0934 0 0
10:54 am 10:54 Sunny 75 23.9 57 13.9 54 54 SSE 12 19 30.12 1020 10 16.0934 0 0
11:54 am 11:54 Sunny 78 25.6 58 14.4 50 50 SSE 12 19 30.11 1020 10 16.0934 0 0
12:54 pm 12:54 Mostly Sunny 79 26.1 59 15 50 50 SE 12 19 30.11 1020 10 16.0934 0 0
1:54 pm 13:54 Partly Cloudy 80 26.7 58 14.4 47 47 SE 12 19 30.09 1019 10 16.0934 0 0
2:54 pm 14:54 Mostly Sunny 79 26.1 57 13.9 47 47 SE 9 15 30.08 1019 10 16.0934 0 0
3:54 pm 15:54 Partly Cloudy 81 27.2 58 14.4 45 45 VRB 6 9 30.05 1018 10 16.0934 0 0
4:54 pm 16:54 Partly Cloudy 82 27.8 59 15 46 46 SE 12 19 30.02 1017 10 16.0934 0 0
5:54 pm 17:54 Mostly Sunny 81 27.2 59 15 47 47 SE 10 17 30.01 1016 10 16.0934 0 0
6:54 pm 18:54 Sunny 79 26.1 58 14.4 49 49 SE 15 24 29.99 1016 10 16.0934 0 0
7:54 pm 19:54 Sunny 76 24.4 57 13.9 52 52 ESE 9 15 29.98 1015 10 16.0934 0 0
8:54 pm 20:54 Clear 74 23.3 56 13.3 54 54 SE 15 24 29.97 1015 10 16.0934 0 0
9:54 pm 21:54 Clear 73 22.8 56 13.3 55 55 SE 10 17 30.01 1016 10 16.0934 0 0
10:54 pm 22:54 Clear 73 22.8 56 13.3 55 55 SSE 10 17 30.01 1016 10 16.0934 0 0
11:54 pm 23:54 Clear 71 21.7 56 13.3 59 59 SSE 12 19 30 1016 10 16.0934 0 0

Powered by AerisWeather